[[{"header":{"parameterUnit":"m.s-1","parameterCategory":1,"la1":30.2991,"la2":30.254,"lo1":-89.0895,"lo2":-89.0444,"dy":0.0017,"dx":0.0017,"nx":28,"ny":28,"refTime":"2025-07-22T21:00:00:Z","depth":0,"parameterNumber":2,"parameterNumberName":"U-component_of_WINDS"},"data":[0,0,0,0,0,0,0,0,0,0,0,0,0,0,0,0,0,0,0,0,0,0,0,0,0,0,0,0,0,0,0,0,0,0,0,0,0,0,0,0,0,0,0,0,0,0,0,0,0,0,0,0,0,0,0,0,0,0,1.35,1.35,0,1.3554,1.3555,1.3556,1.3552,1.3551,1.355,1.3549,1.3607,1.3609,1.3611,0,0,0,0,0,0,0,0,0,0,0,0,0,1.3395,1.3397,1.35,1.35,1.3501,1.3554,1.3555,1.3556,1.3552,1.3551,1.355,1.3549,1.3606,1.3608,1.3611,0,0,0,0,0,0,0,0,0,0,0,0,0,1.3444,1.3397,1.35,1.3506,1.3507,1.3554,1.3555,1.3556,1.3552,1.3551,1.355,1.3549,1.3605,1.3608,1.3612,1.3657,0,0,1.3622,1.3624,0,0,0,0,0,0,0,0,1.3441,1.3448,1.3504,1.3505,1.3507,1.3545,1.3539,1.359,1.3552,1.3535,1.3549,1.3548,1.3587,1.3592,1.3605,1.366,1.3662,1.3622,1.3624,1.3626,1.3627,0,0,0,0,0,0,0,1.3438,1.3445,1.3521,1.3505,1.3506,1.3506,1.3512,1.3549,1.3567,1.3536,1.3536,1.3543,1.3588,1.3602,1.3606,1.3663,1.3622,1.3625,1.3627,1.3629,1.376,1.3761,0,0,0,0,0,0,1.3433,1.3443,1.352,1.3523,1.347,1.3509,1.3516,1.3534,1.3567,1.3571,1.3544,1.3542,1.3596,1.3602,1.3608,1.3665,1.3626,1.3629,1.3631,1.3758,1.376,1.3762,0,0,0,0,0,0,1.343,1.344,1.3517,1.3483,1.3493,1.3512,1.3533,1.3536,1.355,1.3572,1.3576,1.3554,1.3596,1.3603,1.3645,1.3666,1.3631,1.3634,1.3757,1.3759,1.3761,1.3777,0,0,0,0,0,0,1.3427,1.3439,1.3456,1.3483,1.3495,1.3553,1.3534,1.3538,1.3555,1.3554,1.3583,1.3587,1.3595,1.364,1.3649,1.3671,1.3636,1.3755,1.3758,1.376,1.3775,1.378,1.3784,0,0,0,0,0,1.3424,1.3458,1.3456,1.3466,1.3516,1.3554,1.3561,1.3569,1.3557,1.3575,1.359,1.3586,1.3663,1.3645,1.3654,1.3677,1.3754,1.3757,1.376,1.3773,1.3779,1.3784,0,0,0,0,0,0,1.3432,1.3462,1.346,1.3504,1.3527,1.3553,1.3576,1.3575,1.3601,1.3599,1.3609,1.3616,1.3658,1.3672,1.3651,1.3724,1.3707,1.3712,1.3713,1.3719,1.3723,1.3719,1.3639,0,0,0,0,0,1.3439,1.3467,1.3492,1.3528,1.354,1.3556,1.3573,1.3577,1.3601,1.3611,1.3629,1.3652,1.3682,1.3701,1.373,1.3777,1.3784,1.3798,1.3802,1.3806,1.381,1.3837,1.3844,1.3772,1.3772,1.3772,0,0,1.3454,1.3474,1.349,1.353,1.3548,1.3578,1.3564,1.3595,1.3618,1.3616,1.3656,1.3671,1.3698,1.3743,1.3764,1.3756,1.3832,1.381,1.3812,1.3815,1.3841,1.3848,1.3854,1.3774,1.3774,1.3774,0,0,1.3496,1.3513,1.3546,1.3565,1.3592,1.3603,1.3611,1.3638,1.3647,1.3689,1.3688,1.3715,1.3766,1.3786,1.3802,1.3854,1.3852,1.3863,1.3886,1.3912,1.3918,1.3923,1.3942,1.3949,1.3867,1.3867,1.3867,0,1.3511,1.3555,1.3563,1.3595,1.3614,1.3613,1.3648,1.3665,1.3701,1.3714,1.3704,1.3769,1.3787,1.3837,1.385,1.3863,1.3873,1.3859,1.3916,1.3922,1.3926,1.3945,1.3952,1.3868,1.3868,1.3868,1.3868,0,1.3572,1.3603,1.3627,1.3661,1.3682,1.3715,1.3729,1.3749,1.3753,1.3765,1.3808,1.383,1.3863,1.3876,1.3879,1.3927,1.3921,1.3914,1.3897,1.3934,1.3952,1.3959,1.387,1.387,1.3869,1.3869,0,0,1.362,1.366,1.3668,1.3685,1.3716,1.374,1.3774,1.3806,1.3824,1.3849,1.3878,1.3922,1.3916,1.3935,1.3941,1.3964,1.4004,1.3954,1.3955,1.3963,1.4059,1.4065,1.4073,1.4003,1.4005,1.4006,1.4057,0,1.3666,1.3725,1.3734,1.3786,1.3816,1.3817,1.3846,1.3869,1.3882,1.3909,1.3923,1.3954,1.3944,1.3955,1.3978,1.3994,1.4024,1.3991,1.4031,1.4033,1.4024,1.4082,1.4087,1.4134,1.4064,1.4065,1.4066,0,1.3726,1.3753,1.3808,1.3837,1.385,1.3876,1.3907,1.3933,1.396,1.3967,1.3989,1.3993,1.4029,1.4011,1.4061,1.4038,1.4056,1.4066,1.4068,1.4072,1.4051,1.4087,1.4149,1.4157,1.4077,1.4076,1.4075,0,1.3757,1.3807,1.3846,1.386,1.3894,1.3913,1.3928,1.3953,1.3973,1.4001,1.4014,1.4045,1.4063,1.4088,1.41,1.4085,1.415,1.4132,1.4158,1.4158,1.4171,1.417,1.4237,1.4182,1.4182,1.4182,1.4182,0,1.3806,1.384,1.3861,1.3885,1.3924,1.3935,1.3973,1.3987,1.401,1.4038,1.4041,1.4068,1.4083,1.4112,1.4122,1.4163,1.417,1.4178,1.418,1.4178,1.4177,1.4189,1.4186,1.4184,1.4183,1.4183,1.4183,0,1.3846,1.3861,1.3905,1.3934,1.3942,1.3969,1.3994,1.4019,1.4032,1.4067,1.4076,1.4097,1.4132,1.4147,1.4189,1.4196,1.4242,1.4242,1.4233,1.4234,1.4259,1.4257,1.4336,1.4348,1.4285,1.4286,1.4286,0,1.3877,1.3903,1.3935,1.3954,1.397,1.4001,1.4021,1.4033,1.4054,1.4087,1.4108,1.4143,1.4171,1.4226,1.4245,1.4278,1.4278,1.4304,1.4283,1.428,1.4279,1.4278,1.4281,1.4308,1.4308,1.4309,1.4309,0,1.3931,1.3937,1.3966,1.3997,1.4021,1.4047,1.4072,1.4088,1.4104,1.4128,1.4163,1.4185,1.4229,1.4263,1.4297,1.4314,1.4315,1.4316,1.4324,1.4321,1.4315,1.4319,1.4244,1.4314,1.4313,1.4313,1.4313,1.4313,1.3967,1.3991,1.4018,1.405,1.407,1.4094,1.4119,1.4135,1.4165,1.4201,1.4207,1.4245,1.4272,1.4318,1.4336,1.4366,1.436,1.4371,1.4374,1.4376,1.4378,1.431,1.4372,1.4372,1.4372,1.4372,1.4372,0,1.4021,1.4039,1.4068,1.4104,1.4129,1.4128,1.4156,1.4178,1.4211,1.4237,1.4264,1.4306,1.4339,1.4362,1.4396,1.4416,1.4418,1.4425,1.4423,1.4427,1.4381,1.4371,1.4423,1.4423,1.4423,1.4423,1.4423,1.4423,1.4052,1.4093,1.4103,1.4154,1.4171,1.4208,1.4225,1.4247,1.4267,1.4313,1.4341,1.4355,1.438,1.4416,1.4448,1.4454,1.4466,1.4474,1.4479,1.4436,1.443,1.4425,1.4416,1.4476,1.4476,1.4523,1.4523,1.4524]},{"header":{"parameterUnit":"m.s-1","parameterCategory":1,"la1":30.2991,"la2":30.254,"lo1":-89.0895,"lo2":-89.0444,"dy":0.0017,"dx":0.0017,"nx":28,"ny":28,"refTime":"2025-07-22T21:00:00:Z","depth":0,"parameterNumber":3,"parameterNumberName":"V-component_of_WINDS"},"data":[0,0,0,0,0,0,0,0,0,0,0,0,0,0,0,0,0,0,0,0,0,0,0,0,0,0,0,0,0,0,0,0,0,0,0,0,0,0,0,0,0,0,0,0,0,0,0,0,0,0,0,0,0,0,0,0,0,0,-0.828,-0.828,0,-0.8282,-0.8282,-0.8282,-0.8319,-0.832,-0.8321,-0.8321,-0.8323,-0.8323,-0.8322,0,0,0,0,0,0,0,0,0,0,0,0,0,-0.8308,-0.8308,-0.828,-0.828,-0.828,-0.8282,-0.8282,-0.8282,-0.8319,-0.832,-0.8321,-0.8322,-0.8324,-0.8323,-0.8322,0,0,0,0,0,0,0,0,0,0,0,0,0,-0.8302,-0.8307,-0.828,-0.8298,-0.83,-0.8282,-0.8282,-0.8282,-0.8318,-0.832,-0.8321,-0.8322,-0.8324,-0.8323,-0.8322,-0.8286,0,0,-0.8318,-0.8317,0,0,0,0,0,0,0,0,-0.8302,-0.8301,-0.8295,-0.8297,-0.8299,-0.8302,-0.8293,-0.8284,-0.8318,-0.8311,-0.8321,-0.8323,-0.8315,-0.8315,-0.8312,-0.8286,-0.8286,-0.8318,-0.8317,-0.8317,-0.8316,0,0,0,0,0,0,0,-0.8303,-0.8301,-0.8281,-0.8295,-0.8297,-0.8307,-0.8308,-0.8291,-0.8305,-0.8312,-0.8315,-0.8314,-0.8316,-0.8313,-0.8312,-0.8286,-0.8318,-0.8317,-0.8316,-0.8316,-0.8236,-0.8235,0,0,0,0,0,0,-0.83,-0.8301,-0.8281,-0.8281,-0.8304,-0.8305,-0.8306,-0.8299,-0.8306,-0.8308,-0.8313,-0.8316,-0.8315,-0.8314,-0.8313,-0.8275,-0.8317,-0.8315,-0.8315,-0.8237,-0.8236,-0.8234,0,0,0,0,0,0,-0.8301,-0.8298,-0.8281,-0.8292,-0.829,-0.8303,-0.8295,-0.8299,-0.8296,-0.8307,-0.8309,-0.8307,-0.8316,-0.8314,-0.8294,-0.8275,-0.8315,-0.8314,-0.8239,-0.8237,-0.8235,-0.8196,0,0,0,0,0,0,-0.8301,-0.8298,-0.8284,-0.8291,-0.8289,-0.8261,-0.8294,-0.8298,-0.8293,-0.8297,-0.8302,-0.8304,-0.8317,-0.8295,-0.8292,-0.8274,-0.8313,-0.8241,-0.8238,-0.8236,-0.8199,-0.8193,-0.8188,0,0,0,0,0,-0.8302,-0.8272,-0.8283,-0.8281,-0.8272,-0.8259,-0.8259,-0.8274,-0.8292,-0.8279,-0.8286,-0.8304,-0.8277,-0.8293,-0.829,-0.8271,-0.8242,-0.8239,-0.8236,-0.8202,-0.8194,-0.8188,0,0,0,0,0,0,-0.8262,-0.8273,-0.8286,-0.8257,-0.8257,-0.8266,-0.8249,-0.8265,-0.826,-0.8264,-0.8283,-0.8283,-0.826,-0.8263,-0.828,-0.8239,-0.8263,-0.8259,-0.8238,-0.8231,-0.8225,-0.8226,-0.8312,0,0,0,0,0,-0.8249,-0.8238,-0.8249,-0.8222,-0.8222,-0.8235,-0.823,-0.8242,-0.8243,-0.8244,-0.825,-0.825,-0.8242,-0.8236,-0.8229,-0.82,-0.8203,-0.8185,-0.818,-0.8175,-0.8172,-0.816,-0.8153,-0.8224,-0.8224,-0.8224,0,0,-0.8224,-0.8229,-0.822,-0.8214,-0.8216,-0.8205,-0.8235,-0.8221,-0.8214,-0.8241,-0.8223,-0.8228,-0.823,-0.8205,-0.8194,-0.8207,-0.8153,-0.8171,-0.8167,-0.8167,-0.8156,-0.8149,-0.8143,-0.8222,-0.8222,-0.8223,0,0,-0.8172,-0.8173,-0.8153,-0.8155,-0.8158,-0.8168,-0.8163,-0.817,-0.8174,-0.8156,-0.8178,-0.8169,-0.8154,-0.8156,-0.8155,-0.8107,-0.8124,-0.8104,-0.8075,-0.8063,-0.8057,-0.8052,-0.8038,-0.8032,-0.81,-0.81,-0.81,0,-0.814,-0.8124,-0.8141,-0.8127,-0.8125,-0.815,-0.8131,-0.8132,-0.8132,-0.813,-0.8144,-0.8128,-0.8131,-0.8109,-0.8098,-0.8095,-0.8092,-0.8104,-0.8056,-0.8052,-0.8048,-0.8034,-0.8029,-0.8098,-0.8098,-0.8099,-0.8099,0,-0.8086,-0.8074,-0.8058,-0.8059,-0.8055,-0.8038,-0.8054,-0.8048,-0.8061,-0.8069,-0.8052,-0.8057,-0.8053,-0.8048,-0.806,-0.8029,-0.8037,-0.8053,-0.8078,-0.8038,-0.8026,-0.8021,-0.8095,-0.8096,-0.8096,-0.8097,0,0,-0.8008,-0.8021,-0.8014,-0.8017,-0.8023,-0.8015,-0.8,-0.7997,-0.7993,-0.7992,-0.7982,-0.7971,-0.7987,-0.7985,-0.7998,-0.7987,-0.7953,-0.8005,-0.8005,-0.7997,-0.7922,-0.7912,-0.7905,-0.7964,-0.7963,-0.7962,-0.7923,0,-0.796,-0.7937,-0.7953,-0.7927,-0.7918,-0.7944,-0.7931,-0.7935,-0.7943,-0.7937,-0.7946,-0.7939,-0.7959,-0.7959,-0.7949,-0.7959,-0.7938,-0.7961,-0.7956,-0.7956,-0.7957,-0.7899,-0.7887,-0.785,-0.7918,-0.7917,-0.7917,0,-0.7901,-0.7901,-0.7874,-0.7885,-0.7882,-0.7871,-0.7871,-0.7865,-0.787,-0.7877,-0.7877,-0.7893,-0.7881,-0.7904,-0.789,-0.7905,-0.7904,-0.7908,-0.7907,-0.7909,-0.7935,-0.7901,-0.7838,-0.7834,-0.7909,-0.791,-0.791,0,-0.7851,-0.7843,-0.7827,-0.7828,-0.7839,-0.7832,-0.7836,-0.7842,-0.7841,-0.7841,-0.7841,-0.7839,-0.7838,-0.7837,-0.7853,-0.7868,-0.7837,-0.7861,-0.7845,-0.7844,-0.7838,-0.7839,-0.7776,-0.7833,-0.7833,-0.7833,-0.7833,0,-0.7798,-0.7781,-0.7805,-0.7795,-0.7779,-0.7798,-0.7781,-0.7788,-0.7794,-0.7787,-0.7808,-0.7801,-0.7822,-0.7818,-0.783,-0.7817,-0.7816,-0.7823,-0.7827,-0.7822,-0.7822,-0.7823,-0.7827,-0.7832,-0.7832,-0.7833,-0.7833,0,-0.7739,-0.7754,-0.7739,-0.7752,-0.7755,-0.7742,-0.7754,-0.7746,-0.7757,-0.7748,-0.7747,-0.7764,-0.776,-0.7776,-0.7774,-0.7783,-0.7765,-0.7772,-0.7764,-0.7767,-0.775,-0.7752,-0.7688,-0.7682,-0.7741,-0.774,-0.7739,0,-0.7705,-0.7693,-0.7706,-0.7703,-0.7707,-0.7702,-0.7701,-0.772,-0.7719,-0.7725,-0.7718,-0.7716,-0.7716,-0.7709,-0.7721,-0.7721,-0.773,-0.7708,-0.773,-0.7727,-0.7733,-0.7734,-0.7735,-0.7703,-0.7703,-0.7702,-0.7701,0,-0.7644,-0.7652,-0.765,-0.7652,-0.7651,-0.7653,-0.7656,-0.7652,-0.7673,-0.7671,-0.7668,-0.7668,-0.7668,-0.7667,-0.767,-0.7676,-0.7693,-0.7694,-0.7691,-0.7687,-0.7684,-0.7689,-0.7754,-0.7696,-0.7697,-0.7697,-0.7697,-0.7697,-0.7598,-0.759,-0.7599,-0.7597,-0.7602,-0.7605,-0.76,-0.7611,-0.7609,-0.7611,-0.7622,-0.7618,-0.7626,-0.7632,-0.7636,-0.7634,-0.7645,-0.7639,-0.7638,-0.7637,-0.7636,-0.7683,-0.7634,-0.7635,-0.7635,-0.7635,-0.7635,0,-0.7541,-0.7548,-0.7546,-0.7551,-0.755,-0.7567,-0.7572,-0.7571,-0.7567,-0.7573,-0.7573,-0.7572,-0.7572,-0.7585,-0.7587,-0.7583,-0.7591,-0.7583,-0.7584,-0.7586,-0.7624,-0.7628,-0.7576,-0.7576,-0.7576,-0.7576,-0.7576,-0.7576,-0.7511,-0.75,-0.751,-0.7502,-0.751,-0.7507,-0.7509,-0.7513,-0.7518,-0.7516,-0.7517,-0.7525,-0.7535,-0.7538,-0.754,-0.7543,-0.7544,-0.7534,-0.7541,-0.7577,-0.7583,-0.7588,-0.7592,-0.7533,-0.7533,-0.7503,-0.7503,-0.7502]}]]